Regional Weather Roundup
Issued by NWS

Home | Current Version | Previous Version | Text Only | Print | Product List | Glossary Off
Versions: 1 2 3 4 5 6 7 8 9 10 11 12 13 14 15 16 17 18 19 20 21 22 23 24 25 26 27 28 29 30 31 32 33 34 35 36 37 38 39 40 41 42 43 44 45 46 47 48 49 50

000
ASUS43 KLOT 021508
RWRIL

ILLINOIS REGIONAL WEATHER ROUNDUP
NATIONAL WEATHER SERVICE CHICAGO/ROMEOVILLE IL
1000 AM CDT MON MAY 02 2016

NOTE: "FAIR" INDICATES FEW OR NO CLOUDS BELOW 12,000 FEET WITH NO
SIGNIFICANT WEATHER AND/OR OBSTRUCTIONS TO VISIBILITY.

* THESE STATIONS ARE NOT UNDER NWS QUALITY CONTROL. THEY ALSO MAY NOT
  REPORT WEATHER SUCH AS PRECIPITATION OR FOG.

ILZ001-002-007-009-015-016-024-021600-
NORTHWEST ILLINOIS

CITY           SKY/WX    TMP DP  RH WIND       PRES   REMARKS
MOLINE         CLOUDY    52  45  77 N8        30.08F
STERLING*      CLOUDY    54  45  71 NE9       30.08F
SAVANNA*       CLOUDY    55  42  63 NE8       30.09F
$$

ILZ003-004-008-010-011-017-018-021600-
NORTH CENTRAL ILLINOIS

CITY           SKY/WX    TMP DP  RH WIND       PRES   REMARKS
ROCKFORD       MOSUNNY   55  38  52 NE14      30.10S
FREEPORT*      SUNNY     52  40  65 NE10      30.11S
ROCHELLE*      MOSUNNY   53  43  68 NE17      30.08S
DE KALB*       SUNNY     53  41  64 NE13G18   30.07S
$$

ILZ005-006-012>014-019>023-021600-
NORTHEAST ILLINOIS

CITY           SKY/WX    TMP DP  RH WIND       PRES   REMARKS
CHICAGO-OHARE  MOSUNNY   52  37  56 NE14      30.07R
CHICAGO-MIDWAY MOSUNNY   53  38  56 NE16      30.05S
AURORA         SUNNY     54  40  59 NE13      30.06S
LANSING*       MOSUNNY   50  40  69 NE15      30.04S
JOLIET*        SUNNY     55  41  59 NE13G20   30.04S
WAUKEGAN       SUNNY     52  37  56 NE12G18   30.07R
DUPAGE AIRPORT SUNNY     54  38  54 NE13      30.06R
KANKAKEE*      PTSUNNY   51  43  74 NE8       30.04S
WHEELING       SUNNY     51  35  54 NE10      30.08R
MORRIS*        SUNNY     52  41  65 NE7       30.04S
ROMEOVILLE*    SUNNY     53  38  57 NE16      30.04F
NORTHERLY ISL    N/A     47  39  74 N12         N/A
NORTHERLY ISL    N/A     47  39  74 N12         N/A
$$

LMZ740>746-021600-
SOUTHERN LAKE MICHIGAN

STATION/POSITION SKY/WX   TEMP    WIND        PRES    VSBY  WAVE
                          AIR SEA DIR/SP/G                  HT/PER
                          (F)     (DEG/KT/KT) (MB)    (MI)  (FT/S)
SOUTHERN BUOY              41 40  360/  8/  8 1018.1R         1/ 4
HARRISON CRIB              45     360/ 13/ 14   N/A
BURNHAM HARBOR             47     340/ 12/ 14   N/A
CALUMET HARBOR             46      10/ 12/ 15 1017.3R
BURNS HARBOR               45      20/ 15/ 16 1017.3F
MICHIGAN CITY              45      20/ 12/ 13   N/A
ST. JOSEPH                 46 47                N/A           2/ 4
$$

ILZ025>027-034>036-040-047-049-050-058-095>099-021600-
WEST-CENTRAL ILLINOIS

CITY           SKY/WX    TMP DP  RH WIND       PRES   REMARKS
QUINCY         MOSUNNY   54  47  77 N10       30.07R
GALESBURG*     CLOUDY    49  44  81 NE13      30.07S
MACOMB*        CLOUDY    50  47  89 N10       30.08S
JACKSONVILLE*  CLOUDY    52  47  84 N9        30.05F
PITTSFIELD*    CLOUDY    53  48  84 N7        30.07S
$$

ILZ028>032-037-038-041>044-048-051>054-059>061-021600-
CENTRAL ILLINOIS

CITY           SKY/WX    TMP DP  RH WIND       PRES   REMARKS
PONTIAC        MOSUNNY   53  47  81 NE14      30.04F
BLOOMINGTON    CLOUDY    49  47  93 NE12      30.05R
DECATUR        CLOUDY    50  46  86 N9        30.04S
PEORIA         CLOUDY    50  43  77 NE13      30.06S
LACON*         PTSUNNY   53  43  69 NE9       30.05S
LINCOLN*       CLOUDY    49  47  92 N7        30.05S
SPRINGFIELD    CLOUDY    52  47  83 N10       30.05R
TAYLORVILLE    CLOUDY    50  46  87 N9        30.05R
$$

ILZ033-039-045-046-055>057-062-063-021600-
EAST-CENTRAL ILLINOIS

CITY           SKY/WX    TMP DP  RH WIND       PRES   REMARKS
CHAMPAIGN      CLOUDY    50  46  86 N9        30.03R
RANTOUL*       CLOUDY    49  46  87 NE9       30.04R
MATTOON        CLOUDY    50  46  86 N8        30.01F
PARIS*         CLOUDY    51  49  94 CALM      30.02S
$$

ILZ079-100>102-021600-
SOUTHWEST ILLINOIS

CITY           SKY/WX    TMP DP  RH WIND       PRES   REMARKS
ALTON          CLOUDY    54  46  76 CALM      30.06R
BELLEVILLE     PTSUNNY   54  50  85 NW6       30.04S
CAHOKIA*       CLOUDY    54  47  77 N6        30.06S
SPARTA*        CLOUDY    55  47  75 NW5       30.05F
$$

ILZ064>066-069>071-074>076-080>082-084>086-088>090-092>094-021600-
SOUTH-CENTRAL ILLINOIS

CITY           SKY/WX    TMP DP  RH WIND       PRES   REMARKS
CARBONDALE     CLOUDY    58  48  69 NW8       30.03F
CAIRO*         CLOUDY    59  50  72 E3        30.05R
EFFINGHAM*     CLOUDY    53  48  83 NW5       30.04S
MARION         CLOUDY    57  48  72 NW14      30.04S
MT. VERNON     CLOUDY    55  46  71 N3        30.04F
CENTRALIA*     RAIN      52  50  92 N7        30.04S
SALEM*         LGT RAIN  54  49  85 CALM      30.04S
METROPOLIS*    PTSUNNY   59  52  76 CALM      30.05R
$$

ILZ067-068-072-073-078-083-087-091-021600-
SOUTHEAST ILLINOIS

CITY           SKY/WX    TMP DP  RH WIND       PRES   REMARKS
LAWRENCEVILLE  CLOUDY    56  49  77 NW6       30.01R
FLORA*         CLOUDY    56  49  75 NW7       30.04R
FAIRFIELD*     CLOUDY    55  50  83 NW6       30.02R
HARRISBURG*    MOSUNNY   58  50  73 NW9       30.02F
ROBINSON*      CLOUDY    52  48  84 N5        30.03S
CARMI*         CLOUDY    58  51  76 W10       30.01R
$$

ABBREVIATIONS USED IN REMARKS
   TC - TEMPERATURE IN CELSIUS
  WCI - WIND CHILL INDEX
   HX - HEAT INDEX
  VSB - VISIBILITY
$$





USA.gov is the U.S. government's official web portal to all federal, state and local government web resources and services.